{"data":{"norad_id":62270,"intl_designator":"2024-237D","name":"STARLINK-11479 [DTC]","alt_names":[],"object_type":"PAYLOAD","status":"ACTIVE","operator":null,"country":"US","launch_date":"2024-12-08","launch_site_code":"AFETR","launch_vehicle":null,"mission":null,"orbit_class":"UNKNOWN","rcs_meters":null,"size_class":null,"mass_kg":null,"dimensions":null,"purposes":["comms"],"wikipedia_slug":null,"has_3d_model":false,"image_url":null,"decayed_at":null,"tle_current":{"epoch":"2026-05-25T04:36:17.256096Z","epoch_age_seconds":52432,"freshness":"FRESH","line1":"1 62270U 24237D   26145.19186639  .00195092  00000+0  14850-2 0  9991","line2":"2 62270  42.9997 315.5195 0000891 299.6738  60.4041 15.70895118 85081","mean_motion":15.70895118,"eccentricity":8.91e-5,"inclination_deg":42.9997,"raan_deg":315.5195,"arg_perigee_deg":299.6738,"mean_anomaly_deg":60.4041,"bstar":0.001485,"rev_number":8508,"period_min":91.667482029822,"perigee_km":355.73748693484,"apogee_km":356.93757029584,"semimajor_km":6734.4745286153,"source":"CELESTRAK","updated_at":"2026-05-25T13:38:19.641628Z"}}}